Starlink 34302

operational
NORAD ID: 65216 Int'l Des: 2025-176 Owner: SPXS Country: US Constellation: starlink
LEOCIRCULAR

Über Starlink 34302

Beschreibung wird geladen...

Live-Position

3D-Globus wird geladen...

Nächste Überflüge

Höhenverlauf

Altitude vs Time

uPlot chart will show altitude changes over time

Zweizeiliger Elementsatz

1 65216U 25176U 25341.11781398 .00013610 00000-0 47064-3 0 9999
2 65216 53.1569 222.9742 0000998 112.7533 247.3573 15.30212039 18946
Epoch: 7. Dez. 2025 • Age: 19 hours

Aktueller Status

Höhe 480.1 km
Geschwindigkeit 7.63 km/s
Subsatellitenpunkt 49.38°N, 69.66°W
Startdatum 14. Aug. 2025
Alter 0.3 years
Typ internet

Technische Details

Klassifizierung Payload
Masse 575.00 kg
Trockenmasse 530.00 kg
Gesamtmasse 575.00 kg
Länge 0.30 m
Durchmesser 4.10 m
Spannweite 29.00 m
Form Box + pan
Hersteller SPXS
Bus-Typ Starlink V2MO
Phasenstatus In Orbit
Besitzer/Staat SPXS/US

Große Konstellationen

Loading constellations...